Voltar ao catálogo

OPS 4682 DEB

AtivoPO
NORAD 38369·DEBRIS·🇺🇸 United States

Lançado Apr 3, 1965 de Vandenberg Space Force Base

Loading…

Próximas Passagens (próximas 24 horas)

TLE

AtualizadoSource: Space-Track

Época: Sep 14, 2026, 13:16 UTC

1 38369U 65027BW  26257.55280299  .00000062  00000-0  18529-3 0  9997
2 38369  90.2450   8.3059 0031360 164.9003 195.3062 12.98492199564625

Acompanhe OPS 4682 DEB em tempo real com AllMySat

Download on the App Store